カタログに戻る

STARLINK-31791

運用中通信VLEO
NORAD 59637·PAYLOAD·🇺🇸 United States

打ち上げ May 3, 2024 から Cape Canaveral Space Force Station

Loading…

次のパス (今後24時間)

TLE

最新Source: CelesTrak SupGP

元期: Sep 14, 2026, 21:08 UTC

1 59637C 24082G   26257.88104167 -.00047339  00000+0 -17146-2 0  2578
2 59637  43.0005 151.1268 0001222 268.2932 283.9751 15.27602149    10

AllMySatでSTARLINK-31791をリアルタイム追跡

Download on the App Store